1491296400.02,62738,15.0,74056.0,3.31,-0.93,-0.93,0,*74
1491296401.27,62739,15.0,74058.3,3.31,-0.97,-0.93,0,*71
1491296402.5,62740,15.0,74056.0,3.31,-0.93,-0.81,0,*78
1491296403.74,62741,15.0,74058.3,3.31,-0.93,-0.85,0,*7D
1491296404.99,62742,15.0,74058.3,3.31,-0.97,-0.97,0,*79
1491296406.19,62743,15.0,74062.0,3.29,-1.29,-1.21,0,*79
1491296407.37,62744,15.0,74056.3,3.29,-1.59,-1.59,0,*76
1491296408.58,62745,15.0,74056.8,3.27,-1.59,-1.63,0,*70
1491296409.84,62746,15.0,74052.3,3.27,-1.35,-1.35,0,*7A
1491296411.07,62747,15.0,74058.8,3.27,-1.35,-1.33,0,*7D
1491296412.27,62748,15.0,74058.5,3.25,-1.21,-1.21,0,*76
1491296413.48,62749,15.0,74056.5,3.25,-1.21,-1.13,0,*76
1491296414.72,62750,15.0,74058.0,3.21,-1.05,-1.01,0,*7F
1491296415.96,62751,15.0,74060.3,3.21,-1.05,-1.01,0,*7E
1491296417.14,62752,15.0,74056.3,3.25,-0.65,-0.57,0,*7C
1491296418.31,62753,15.0,74060.3,3.21,-0.77,-0.65,0,*7B
1491296419.52,62754,15.0,74062.8,3.25,-0.97,-0.77,0,*75
1491296420.74,62755,15.0,74056.0,3.21,-1.29,-1.05,0,*70
1491296421.95,62756,15.0,74058.3,3.21,-1.55,-1.35,0,*7B
1491296423.17,62757,15.0,74058.3,3.21,-1.39,-1.29,0,*7D
1491296424.36,62758,15.0,74058.3,3.21,-1.29,-1.25,0,*7F
1491296425.54,62759,15.0,74056.5,3.21,-1.25,-1.25,0,*72
1491296426.8,62760,15.0,74058.0,3.19,-1.13,-1.01,0,*70
1491296427.99,62761,15.0,74052.5,3.17,-0.73,-0.69,0,*77
1491296429.19,62762,15.0,74056.8,3.19,-0.41,-0.29,0,*7F
1491296430.4,62763,15.0,74056.8,3.19,-0.49,-0.41,0,*78
1491296431.61,62764,15.0,74062.0,3.19,-0.53,-0.41,0,*74
1491296432.79,62765,15.0,74060.0,3.17,-0.53,-0.33,0,*7E
1491296434.0,62766,15.0,74062.0,3.19,-0.81,-0.69,0,*73
1491296435.23,62767,15.0,74058.5,3.19,-1.01,-0.81,0,*4D
1491296436.49,62768,15.0,74056.0,3.19,-1.01,-0.89,0,*4A
1491296437.72,62769,15.0,74062.5,3.19,-1.01,-0.77,0,*4A
1491296438.94,62770,15.0,74058.0,3.17,-1.39,-1.29,0,*7D
1491296440.18,62771,15.0,74062.0,3.19,-1.39,-1.25,0,*7E
1491296441.38,62772,15.0,74058.0,3.17,-1.21,-1.21,0,*7E
1491296442.58,62773,15.0,74060.5,3.17,-0.97,-0.81,0,*78
1491296443.76,62774,15.0,74060.3,3.17,-0.69,-0.53,0,*71
1491296444.96,62775,15.0,74058.3,3.19,-0.61,-0.49,0,*7D
1491296446.16,62776,15.0,74058.0,3.19,-0.77,-0.61,0,*73
1491296447.39,62777,15.0,74060.3,3.17,-0.97,-0.93,0,*7F
1491296448.63,62778,15.0,74060.0,3.17,-1.05,-0.93,0,*4A
1491296449.86,62779,15.0,74062.3,3.17,-1.05,-0.97,0,*4F
1491296451.09,62780,15.0,74060.0,3.17,-1.09,-0.93,0,*41
1491296452.32,62781,15.0,74060.5,3.17,-1.05,-0.93,0,*4C
1491296453.58,62782,15.0,74060.5,3.15,-1.13,-1.01,0,*70
1491296454.79,62783,15.0,74060.0,3.15,-1.21,-1.25,0,*76
1491296456.05,62784,15.0,74058.3,3.15,-1.09,-1.01,0,*7D
1491296457.3,62785,15.0,74060.0,3.15,-1.09,-1.01,0,*7C
1491296458.53,62786,15.0,74058.8,3.13,-0.89,-0.89,0,*71
1491296459.73,62787,15.0,74056.8,3.15,-0.73,-0.69,0,*7D
1491296460.94,62788,15.0,74060.0,3.13,-0.85,-0.69,0,*7D
1491296462.15,62789,15.0,74060.0,3.13,-0.97,-0.73,0,*74
1491296463.36,62790,15.0,74062.0,3.13,-0.89,-0.77,0,*77
1491296464.59,62791,15.0,74060.8,3.15,-1.13,-0.77,0,*42
1491296465.83,62792,15.0,74060.8,3.13,-1.35,-1.01,0,*73
1491296467.01,62793,15.0,74062.8,3.13,-1.59,-1.21,0,*7A
1491296468.25,62794,15.0,74056.8,3.13,-1.47,-1.09,0,*78
1491296469.44,62795,15.0,74060.5,3.13,-1.21,-0.77,0,*41
1491296470.63,62796,15.0,74060.5,3.13,-1.21,-0.77,0,*42
1491296471.86,62797,15.0,74060.8,3.15,-0.97,-0.57,0,*7B
1491296473.09,62798,15.0,74058.3,3.15,-1.09,-0.77,0,*40
1491296474.3,62799,15.0,74062.3,3.13,-1.01,-0.61,0,*48
1491296475.53,62800,15.0,74056.8,3.15,-0.97,-0.57,0,*7A
1491296476.76,62801,15.0,74062.8,3.15,-1.13,-0.73,0,*40
1491296477.98,62802,15.0,74062.8,3.17,-1.33,-1.05,0,*73
1491296479.16,62803,15.0,74062.3,3.17,-1.59,-1.17,0,*7D
1491296480.35,62804,15.0,74062.5,3.17,-1.67,-1.21,0,*72
1491296481.58,62805,15.0,74058.3,3.17,-1.43,-0.93,0,*4D
1491296482.8,62806,15.0,74060.0,3.17,-1.39,-0.81,0,*40
1491296484.0,62807,15.0,74064.3,3.17,-1.67,-0.93,0,*49
1491296485.22,62808,15.0,74062.8,3.17,-1.83,-1.21,0,*74
1491296486.44,62809,15.0,74064.5,3.19,-2.31,-1.67,0,*73
1491296487.67,62810,15.0,74062.3,3.19,-2.43,-1.91,0,*77
1491296488.89,62811,15.0,74064.5,3.19,-2.31,-1.79,0,*75
1491296490.12,62812,15.0,74060.5,3.19,-2.27,-1.91,0,*77
1491296491.36,62813,15.0,74062.0,3.19,-1.67,-1.39,0,*73
1491296492.56,62814,15.0,74058.3,3.19,-1.63,-1.25,0,*7D
1491296493.78,62815,15.0,74058.5,3.21,-1.67,-1.39,0,*7E
1491296494.99,62816,15.0,74066.3,3.21,-1.79,-1.43,0,*7F
1491296496.23,62817,15.0,74060.5,3.25,-1.87,-1.47,0,*7F
1491296497.44,62818,15.0,74062.3,3.25,-1.95,-1.63,0,*75
1491296498.63,62819,15.0,74060.8,3.25,-2.23,-1.71,0,*79
1491296499.84,62820,15.0,74062.8,3.25,-2.23,-1.83,0,*7E
1491296501.04,62821,15.0,74062.8,3.25,-2.19,-1.95,0,*71
1491296502.28,62822,15.0,74062.3,3.25,-2.11,-1.83,0,*7D
1491296503.52,62823,15.0,74062.5,3.27,-1.99,-1.75,0,*74
1491296504.74,62824,15.0,74062.5,3.29,-1.59,-1.35,0,*75
1491296505.95,62825,15.0,74060.5,3.29,-1.47,-1.33,0,*7D
1491296507.17,62826,15.0,74058.8,3.29,-1.91,-1.67,0,*74
1491296508.41,62827,15.0,74060.0,3.27,-2.39,-1.99,0,*7B
1491296509.64,62828,15.0,74062.3,3.27,-2.59,-2.19,0,*79
1491296510.88,62829,15.0,74062.0,3.27,-2.35,-2.07,0,*7D
1491296512.09,62830,15.0,74060.0,3.29,-2.19,-1.91,0,*79
1491296513.33,62831,15.0,74056.5,3.29,-1.91,-1.91,0,*7B
1491296514.58,62832,15.0,74060.8,3.29,-1.83,-1.83,0,*78
1491296515.79,62833,15.0,74062.0,3.33,-2.39,-2.19,0,*70
1491296517.06,62834,15.0,74060.0,3.31,-2.59,-2.47,0,*78
1491296518.29,62835,15.0,74060.3,3.31,-2.47,-2.43,0,*72
1491296519.5,62836,15.0,74060.8,3.31,-2.35,-2.43,0,*74
1491296520.78,62837,15.0,74064.0,3.33,-2.47,-2.47,0,*76
1491296522.0,62838,15.0,74062.0,3.33,-2.15,-2.19,0,*75
1491296523.25,62839,15.0,74062.3,3.33,-2.75,-2.95,0,*76
1491296524.46,62840,15.0,74060.5,3.31,-2.79,-2.99,0,*7A
1491296525.7,62841,15.0,74066.8,3.33,-2.67,-2.87,0,*79
1491296526.95,62842,15.0,74062.3,3.33,-2.43,-2.67,0,*72
1491296528.16,62843,15.0,74064.5,3.33,-2.79,-3.19,0,*72
1491296529.38,62844,15.0,74064.8,3.33,-2.79,-3.03,0,*7E
1491296530.66,62845,15.0,74062.0,3.33,-2.51,-2.75,0,*75
1491296531.9,62846,15.0,74060.3,3.33,-2.31,-2.55,0,*72
1491296533.16,62847,15.0,74060.8,3.33,-2.03,-2.31,0,*70
1491296534.43,62848,15.0,74062.8,3.33,-1.91,-2.11,0,*75
1491296535.65,62849,15.0,74062.0,3.35,-2.07,-2.35,0,*78
1491296536.87,62850,15.0,74060.0,3.35,-2.23,-2.47,0,*73
1491296538.11,62851,15.0,74062.0,3.37,-1.99,-2.35,0,*77
1491296539.35,62852,15.0,74062.0,3.37,-1.95,-2.35,0,*78
1491296540.59,62853,15.0,74064.0,3.37,-2.47,-2.91,0,*7B
1491296541.84,62854,15.0,74060.8,3.37,-2.39,-2.63,0,*78
1491296543.08,62855,15.0,74062.0,3.37,-2.27,-2.71,0,*75
1491296544.3,62856,15.0,74062.8,3.39,-2.31,-2.67,0,*78
1491296545.52,62857,15.0,74060.5,3.39,-2.31,-2.67,0,*79
1491296546.7,62858,15.0,74060.3,3.39,-2.35,-2.79,0,*7D
1491296547.92,62859,15.0,74058.0,3.39,-2.03,-2.31,0,*75
1491296549.17,62860,15.0,74062.3,3.41,-2.11,-2.35,0,*77
1491296550.42,62861,15.0,74062.0,3.41,-2.07,-2.43,0,*70
1491296551.66,62862,15.0,74062.3,3.41,-2.23,-2.59,0,*7E
1491296552.9,62863,15.0,74060.5,3.41,-2.11,-2.43,0,*75
1491296554.15,62864,15.0,74062.3,3.41,-1.79,-2.07,0,*7F
1491296555.42,62865,15.0,74062.5,3.41,-1.95,-2.07,0,*7C
1491296556.61,62866,15.0,74064.0,3.43,-2.19,-2.27,0,*78
1491296557.88,62867,15.0,74064.8,3.41,-1.95,-2.07,0,*7E
1491296559.13,62868,15.0,74062.8,3.41,-2.07,-2.19,0,*76
1491296560.34,62869,15.0,74064.5,3.41,-2.19,-2.35,0,*76
1491296561.62,62870,15.0,74064.0,3.45,-1.99,-2.07,0,*70
1491296562.89,62871,15.0,74064.0,3.45,-1.87,-2.07,0,*7E
1491296564.11,62872,15.0,74060.3,3.43,-2.03,-2.31,0,*71
1491296565.33,62873,15.0,74060.8,3.43,-1.99,-2.19,0,*7A
1491296566.6,62874,15.0,74062.8,3.45,-1.91,-1.99,0,*78
1491296567.87,62875,15.0,74064.8,3.45,-1.87,-2.07,0,*7A
1491296569.14,62876,15.0,74064.5,3.45,-1.87,-1.91,0,*75
1491296570.42,62877,15.0,74062.5,3.49,-1.87,-1.99,0,*70
1491296571.64,62878,15.0,74060.0,3.49,-2.35,-2.39,0,*7C
1491296572.86,62879,15.0,74066.8,3.49,-2.15,-2.35,0,*73
1491296574.13,62880,15.0,74066.0,3.49,-2.03,-2.03,0,*77
1491296575.35,62881,15.0,74066.8,3.51,-1.79,-1.83,0,*7A
1491296576.57,62882,15.0,74062.3,3.51,-1.71,-1.91,0,*72
1491296577.81,62883,15.0,74062.3,3.51,-1.95,-2.07,0,*75
1491296579.07,62884,15.0,74066.5,3.51,-1.99,-2.07,0,*7E
1491296580.31,62885,15.0,74064.5,3.49,-2.03,-2.15,0,*75
1491296581.51,62886,15.0,74062.8,3.51,-1.79,-1.79,0,*78
1491296582.75,62887,15.0,74064.0,3.51,-1.83,-1.91,0,*7A
1491296583.94,62888,15.0,74064.0,3.51,-1.55,-1.59,0,*7A
1491296585.19,62889,15.0,74062.0,3.51,-2.07,-1.99,0,*73
1491296586.43,62890,15.0,74060.5,3.51,-2.07,-1.91,0,*73
1491296587.69,62891,15.0,74064.0,3.49,-1.83,-1.71,0,*7A
1491296588.93,62892,15.0,74060.3,3.51,-2.11,-1.83,0,*75
1491296590.18,62893,15.0,74060.3,3.49,-2.11,-1.75,0,*74
1491296591.4,62894,15.0,74062.8,3.51,-1.95,-1.71,0,*71
1491296592.63,62895,15.0,74066.0,3.51,-1.91,-1.71,0,*74
1491296593.84,62896,15.0,74066.0,3.51,-1.95,-1.79,0,*7B
1491296595.06,62897,15.0,74066.5,3.51,-1.95,-1.67,0,*75
1491296596.31,62898,15.0,74064.5,3.51,-1.83,-1.47,0,*7F
1491296597.5,62899,15.0,74066.3,3.51,-2.19,-1.71,0,*7B
1491296598.73,62900,15.0,74060.5,3.51,-2.75,-2.23,0,*74
1491296599.97,62901,15.0,74064.3,3.49,-3.03,-2.71,0,*7B
1491296601.2,62902,15.0,74066.3,3.49,-3.15,-2.87,0,*76
1491296602.39,62903,15.0,74064.5,3.51,-2.99,-2.83,0,*7F
1491296603.63,62904,15.0,74066.8,3.49,-2.59,-2.35,0,*70
1491296604.85,62905,15.0,74066.3,3.51,-2.47,-2.23,0,*70
1491296606.08,62906,15.0,74062.3,3.49,-2.35,-2.23,0,*7F
1491296607.27,62907,15.0,74064.8,3.51,-2.99,-2.95,0,*7C
1491296608.55,62908,15.0,74066.0,3.49,-2.71,-2.63,0,*75
1491296609.76,62909,15.0,74064.5,3.49,-2.39,-2.35,0,*7B
1491296611.04,62910,15.0,74066.5,3.49,-2.71,-2.51,0,*7D
1491296612.29,62911,15.0,74062.5,3.49,-2.79,-2.63,0,*75
1491296613.5,62912,15.0,74062.8,3.49,-3.03,-3.11,0,*7E
1491296614.69,62913,15.0,74064.5,3.43,-3.15,-3.15,0,*76
1491296615.91,62914,15.0,74064.5,3.43,-2.83,-2.75,0,*78
1491296617.18,62915,15.0,74066.0,3.45,-2.75,-2.67,0,*75
1491296618.44,62916,15.0,74062.8,3.45,-2.67,-2.63,0,*71
1491296619.66,62917,15.0,74066.0,3.43,-2.55,-2.43,0,*75
1491296620.9,62918,15.0,74062.8,3.45,-2.51,-2.43,0,*78
1491296622.12,62919,15.0,74064.5,3.45,-2.43,-2.31,0,*7F
1491296623.36,62920,15.0,74066.3,3.45,-2.79,-2.67,0,*7F
1491296624.6,62921,15.0,74064.0,3.43,-2.75,-2.67,0,*74
1491296625.85,62922,15.0,74060.5,3.45,-2.51,-2.39,0,*7C
1491296627.09,62923,15.0,74066.0,3.45,-2.19,-2.03,0,*78
1491296628.3,62924,15.0,74064.5,3.45,-2.27,-2.27,0,*74
1491296629.51,62925,15.0,74066.0,3.49,-2.23,-2.15,0,*7C
1491296630.73,62926,15.0,74064.3,3.45,-2.43,-2.43,0,*76
1491296631.94,62927,15.0,74062.5,3.45,-2.39,-2.31,0,*7F
1491296633.16,62928,15.0,74068.5,3.45,-2.31,-2.27,0,*7F
1491296634.4,62929,15.0,74066.3,3.49,-2.15,-2.03,0,*72
1491296635.62,62930,15.0,74066.5,3.51,-2.19,-2.07,0,*7B
1491296636.84,62931,15.0,74064.5,3.51,-2.19,-2.07,0,*7A
1491296638.04,62932,15.0,74064.3,3.51,-2.31,-2.23,0,*75
1491296639.26,62933,15.0,74068.5,3.49,-2.27,-2.23,0,*7A
1491296640.48,62934,15.0,74062.5,3.51,-2.47,-2.43,0,*74
1491296641.69,62935,15.0,74066.8,3.51,-2.55,-2.35,0,*77
1491296642.91,62936,15.0,74064.0,3.51,-2.47,-2.43,0,*76
1491296644.17,62937,15.0,74066.3,3.51,-2.11,-1.99,0,*70
1491296645.42,62938,15.0,74066.3,3.51,-2.11,-1.99,0,*7F
1491296646.67,62939,15.0,74066.5,3.53,-2.47,-2.35,0,*7A
1491296647.88,62940,15.0,74064.8,3.53,-2.23,-2.19,0,*78
1491296649.08,62941,15.0,74068.0,3.51,-2.35,-2.23,0,*75
1491296650.3,62942,15.0,74066.0,3.53,-2.31,-2.19,0,*79
1491296651.54,62943,15.0,74064.0,3.53,-2.23,-2.07,0,*74
1491296652.79,62944,15.0,74066.0,3.53,-2.19,-2.11,0,*7D
1491296654.01,62945,15.0,74066.8,3.53,-2.31,-2.23,0,*77
1491296655.28,62946,15.0,74066.3,3.53,-2.67,-2.59,0,*7A
1491296656.53,62947,15.0,74066.3,3.55,-2.63,-2.71,0,*73
1491296657.74,62948,15.0,74062.3,3.53,-2.43,-2.43,0,*79
1491296658.93,62949,15.0,74064.8,3.55,-2.31,-2.27,0,*79
1491296660.13,62950,15.0,74066.5,3.55,-2.31,-2.31,0,*76
1491296661.32,62951,15.0,74062.5,3.55,-2.27,-2.27,0,*77
1491296662.54,62952,15.0,74060.8,3.53,-2.35,-2.35,0,*72
1491296663.78,62953,15.0,74060.5,3.55,-2.55,-2.63,0,*70
1491296664.99,62954,15.0,74064.3,3.55,-2.67,-2.79,0,*7D
1491296666.21,62955,15.0,74060.8,3.55,-2.43,-2.51,0,*70
1491296667.4,62956,15.0,74062.0,3.55,-2.39,-2.39,0,*70
1491296668.6,62957,15.0,74060.0,3.55,-2.95,-2.99,0,*7D
1491296669.82,62958,15.0,74060.5,3.55,-2.43,-2.55,0,*79
1491296671.01,62959,15.0,74062.8,3.55,-2.19,-2.27,0,*72
1491296672.22,62960,15.0,74066.8,3.55,-1.95,-2.15,0,*7E
1491296673.47,62961,15.0,74064.0,3.55,-1.95,-2.07,0,*7C
1491296674.69,62962,15.0,74066.3,3.55,-1.79,-2.07,0,*7D
1491296675.9,62963,15.0,74064.8,3.55,-1.95,-2.19,0,*71
1491296677.12,62964,15.0,74064.8,3.55,-1.79,-2.03,0,*7F
1491296678.34,62965,15.0,74062.0,3.57,-1.79,-2.15,0,*7B
1491296679.58,62966,15.0,74064.3,3.57,-1.91,-2.39,0,*70
1491296680.78,62967,15.0,74064.8,3.59,-1.71,-2.15,0,*7F
1491296682.02,62968,15.0,74066.5,3.57,-1.63,-2.03,0,*7A
1491296683.23,62969,15.0,74062.5,3.59,-1.51,-1.91,0,*7C
1491296684.47,62970,15.0,74062.0,3.59,-1.47,-1.91,0,*73
1491296685.72,62971,15.0,74060.5,3.59,-1.47,-1.99,0,*7A
1491296686.96,62972,15.0,74066.0,3.59,-1.47,-1.87,0,*76
1491296688.16,62973,15.0,74066.8,3.59,-1.25,-1.71,0,*7A
1491296689.35,62974,15.0,74066.8,3.59,-1.25,-1.63,0,*7E
1491296690.57,62975,15.0,74060.3,3.59,-1.87,-2.23,0,*70
1491296691.83,62976,15.0,74066.5,3.61,-1.87,-2.11,0,*79
1491296693.07,62977,15.0,74060.3,3.61,-1.79,-2.07,0,*7E
1491296694.29,62978,15.0,74064.5,3.59,-2.11,-2.15,0,*74
1491296695.54,62979,15.0,74062.5,3.59,-2.07,-1.99,0,*75
1491296696.78,62980,15.0,74060.0,3.57,-1.95,-1.75,0,*77
1491296697.96,62981,15.0,74064.0,3.59,-1.63,-1.59,0,*7F
1491296699.18,62982,15.0,74062.8,3.59,-1.63,-1.47,0,*73
1491296700.39,62983,15.0,74064.5,3.57,-1.51,-1.33,0,*7E
1491296701.63,62984,15.0,74062.3,3.61,-1.95,-1.79,0,*7A
1491296702.84,62985,15.0,74060.0,3.59,-1.87,-1.63,0,*78
1491296704.11,62986,15.0,74064.8,3.61,-1.43,-1.35,0,*7B
1491296705.33,62987,15.0,74060.0,3.61,-1.67,-1.67,0,*7B
1491296706.59,62988,15.0,74062.3,3.61,-1.87,-1.87,0,*74
1491296707.8,62989,15.0,74064.0,3.61,-1.59,-1.67,0,*78
1491296709.01,62990,15.0,74062.3,3.61,-1.59,-1.79,0,*7F
1491296710.23,62991,15.0,74062.3,3.63,-1.71,-1.83,0,*73
1491296711.47,62992,15.0,74060.8,3.61,-1.47,-1.55,0,*7C
1491296712.73,62993,15.0,74066.0,3.61,-1.35,-1.35,0,*7E
1491296713.92,62994,15.0,74058.5,3.63,-1.59,-1.55,0,*77
1491296715.13,62995,15.0,74060.8,3.63,-1.55,-1.47,0,*79
1491296716.37,62996,15.0,74056.3,3.63,-1.43,-1.47,0,*7D
1491296717.56,62997,15.0,74060.8,3.63,-1.59,-1.67,0,*75
1491296718.8,62998,15.0,74060.3,3.63,-1.43,-1.47,0,*73
1491296720.05,62999,15.0,74060.5,3.65,-1.09,-1.39,0,*73
1491296721.27,63000,15.0,74062.8,3.65,-1.21,-1.39,0,*71
1491296722.5,63001,15.0,74060.0,3.65,-1.29,-1.39,0,*78
1491296723.7,63002,15.0,74066.0,3.65,-1.33,-1.51,0,*7E
1491296724.91,63003,15.0,74062.0,3.65,-1.09,-1.29,0,*79
1491296726.15,63004,15.0,74060.8,3.67,-0.97,-1.17,0,*47
1491296727.37,63005,15.0,74062.0,3.67,-1.67,-1.79,0,*70
1491296728.64,63006,15.0,74058.5,3.67,-1.91,-1.83,0,*7F
1491296729.83,63007,15.0,74060.0,3.65,-1.75,-1.55,0,*7D
1491296731.07,63008,15.0,74064.0,3.67,-1.67,-1.43,0,*74
1491296732.29,63009,15.0,74060.5,3.67,-1.55,-1.29,0,*78
1491296733.48,63010,15.0,74062.0,3.65,-1.63,-1.33,0,*7C
1491296734.7,63011,15.0,74060.3,3.65,-1.95,-1.67,0,*75
1491296735.94,63012,15.0,74062.3,3.67,-2.07,-1.79,0,*73
1491296737.19,63013,15.0,74064.5,3.67,-2.07,-1.67,0,*7D
1491296738.44,63014,15.0,74064.0,3.67,-2.07,-1.75,0,*79
1491296739.68,63015,15.0,74064.8,3.67,-2.19,-1.91,0,*7D
1491296740.9,63016,15.0,74064.3,3.65,-2.19,-2.03,0,*74
1491296742.11,63017,15.0,74064.5,3.65,-1.95,-1.75,0,*70
1491296743.34,63018,15.0,74064.8,3.65,-2.51,-2.31,0,*77
1491296744.56,63019,15.0,74066.8,3.65,-2.51,-2.39,0,*7E
1491296745.78,63020,15.0,74062.8,3.67,-2.95,-2.79,0,*7A
1491296746.97,63021,15.0,74062.8,3.65,-2.31,-2.19,0,*71
1491296748.17,63022,15.0,74066.8,3.65,-2.31,-2.19,0,*72
1491296749.42,63023,15.0,74060.0,3.65,-2.07,-2.07,0,*79
1491296750.69,63024,15.0,74062.3,3.67,-2.07,-1.95,0,*74
1491296751.95,63025,15.0,74064.0,3.67,-2.71,-2.59,0,*77
1491296753.17,63026,15.0,74062.5,3.67,-2.79,-2.83,0,*7B
1491296754.38,63027,15.0,74064.0,3.67,-2.39,-2.39,0,*7F
1491296755.58,63028,15.0,74060.0,3.65,-2.27,-2.15,0,*73
1491296756.83,63029,15.0,74062.0,3.65,-2.51,-2.51,0,*73
1491296758.01,63030,15.0,74060.3,3.65,-2.83,-2.79,0,*7E
1491296759.23,63031,15.06,74064.0,3.67,-2.31,-2.27,0,*7F
1491296760.42,63032,15.0,74064.0,3.65,-2.39,-2.43,0,*74
1491296761.63,63033,15.0,74064.0,3.67,-2.39,-2.43,0,*77
1491296762.81,63034,15.0,74064.0,3.65,-2.39,-2.43,0,*72
1491296764.01,63035,15.0,74060.8,3.65,-2.31,-2.43,0,*7B
1491296765.26,63036,15.0,74064.8,3.67,-2.07,-2.31,0,*7A
1491296766.48,63037,15.0,74062.8,3.65,-2.07,-2.43,0,*7C
1491296767.72,63038,15.0,74060.0,3.71,-2.03,-2.39,0,*7F
1491296768.94,63039,15.0,74066.3,3.73,-2.03,-2.31,0,*74
1491296770.18,63040,15.0,74062.5,3.71,-1.99,-2.39,0,*70
1491296771.4,63041,15.0,74060.3,3.71,-1.71,-2.15,0,*79
1491296772.68,63042,15.0,74062.5,3.67,-1.83,-2.51,0,*70
1491296773.92,63043,15.0,74064.5,3.71,-1.75,-2.47,0,*78
1491296775.16,63044,15.0,74060.0,3.71,-1.63,-2.47,0,*78
1491296776.4,63045,15.0,74062.8,3.71,-1.75,-2.55,0,*7D
1491296777.64,63046,15.0,74060.5,3.71,-1.29,-2.03,0,*74
1491296778.91,63047,15.0,74062.3,3.71,-1.39,-2.11,0,*77
1491296780.19,63048,15.0,74060.8,3.71,-1.39,-2.03,0,*7B
1491296781.46,63049,15.06,74062.3,3.71,-1.05,-1.39,0,*7F
1491296782.72,63050,15.0,74060.0,3.71,-1.13,-1.47,0,*79
1491296783.94,63051,15.0,74062.8,3.67,-1.33,-1.55,0,*7E
1491296785.19,63052,15.0,74060.3,3.71,-1.47,-1.63,0,*7C
1491296786.4,63053,15.0,74060.8,3.67,-1.63,-1.79,0,*77
1491296787.63,63054,15.0,74058.5,3.65,-1.29,-1.39,0,*78
1491296788.85,63055,15.0,74058.8,3.67,-1.21,-1.33,0,*79
1491296790.1,63056,15.0,74054.3,3.67,-1.39,-1.63,0,*76
1491296791.35,63057,15.0,74056.5,3.67,-1.05,-1.21,0,*7E
1491296792.6,63058,15.0,74056.5,3.67,-0.93,-1.09,0,*45
1491296793.85,63059,15.0,74058.0,3.67,-1.05,-1.21,0,*70
1491296795.06,63060,15.0,74058.5,3.65,-0.93,-1.29,0,*4E
1491296796.32,63061,15.06,74060.8,3.67,-0.93,-1.09,0,*4F
1491296797.58,63062,15.06,74058.3,3.67,-0.93,-1.09,0,*4C
1491296798.79,63063,15.06,74058.0,3.65,-0.93,-1.17,0,*40
1491296800.02,63064,15.0,74054.3,3.63,-0.97,-1.13,0,*41
1491296801.21,63065,15.06,74056.3,3.65,-1.21,-1.33,0,*78
1491296802.46,63066,15.0,74052.8,3.65,-0.89,-1.05,0,*4D
1491296803.66,63067,15.0,74056.0,3.65,-0.77,-0.93,0,*73
1491296804.89,63068,15.0,74058.0,3.65,-1.21,-1.39,0,*7F
1491296806.09,63069,15.0,74054.0,3.65,-1.17,-1.29,0,*7A
1491296807.3,63070,15.0,74054.3,3.63,-1.13,-1.33,0,*7B
1491296808.51,63071,15.0,74054.8,3.63,-1.13,-1.33,0,*7A
1491296809.74,63072,15.0,74052.5,3.61,-0.81,-0.93,0,*7A
1491296810.95,63073,15.0,74058.8,3.61,-0.73,-0.81,0,*75
1491296812.17,63074,15.06,74058.3,3.63,-0.85,-0.93,0,*7A
1491296813.43,63075,15.0,74058.3,3.61,-0.97,-0.97,0,*7E
1491296814.65,63076,15.06,74058.8,3.61,-0.73,-0.85,0,*74
1491296815.9,63077,15.0,74058.3,3.61,-1.33,-1.35,0,*7A
1491296817.11,63078,15.0,74056.3,3.61,-1.21,-1.25,0,*77
1491296818.38,63079,15.0,74056.3,3.57,-1.09,-1.05,0,*7B
1491296819.57,63080,15.0,74060.3,3.59,-1.17,-1.29,0,*72
1491296820.82,63081,15.0,74058.8,3.59,-1.39,-1.35,0,*72
1491296822.06,63082,15.0,74056.8,3.57,-1.09,-1.17,0,*7C
1491296823.28,63083,15.0,74058.3,3.57,-1.21,-1.29,0,*7A
1491296824.51,63084,15.0,74056.8,3.55,-1.05,-1.17,0,*74
1491296825.76,63085,15.0,74058.5,3.53,-1.33,-1.35,0,*76
1491296827.0,63086,15.0,74060.0,3.53,-1.13,-1.25,0,*76
1491296828.25,63087,15.0,74058.5,3.53,-1.33,-1.43,0,*75
1491296829.49,63088,15.06,74062.3,3.53,-1.47,-1.55,0,*7E
1491296830.68,63089,15.0,74062.5,3.51,-1.25,-1.25,0,*7E
1491296831.92,63090,15.0,74060.8,3.51,-1.35,-1.35,0,*76
1491296833.14,63091,15.0,74058.8,3.49,-1.51,-1.63,0,*7F
1491296834.42,63092,15.0,74060.5,3.49,-1.39,-1.35,0,*71
1491296835.69,63093,15.0,74060.5,3.49,-1.39,-1.39,0,*7C
1491296836.91,63094,15.0,74062.0,3.49,-1.25,-1.17,0,*7A
1491296838.18,63095,15.0,74058.5,3.45,-1.43,-1.39,0,*7B
1491296839.45,63096,15.0,74058.0,3.45,-1.01,-1.01,0,*75
1491296840.64,63097,15.0,74062.5,3.43,-1.29,-1.33,0,*79
1491296841.86,63098,15.0,74060.3,3.43,-1.17,-1.13,0,*79
1491296843.12,63099,15.0,74058.8,3.45,-1.01,-1.01,0,*7A
1491296844.31,63100,15.0,74056.8,3.43,-1.29,-1.29,0,*7D
1491296845.56,63101,15.0,74060.3,3.43,-1.05,-1.01,0,*78
1491296846.78,63102,15.06,74064.8,3.43,-0.93,-0.93,0,*7F
1491296848.0,63103,15.0,74062.3,3.39,-1.17,-1.05,0,*70
1491296849.26,63104,15.0,74060.8,3.41,-0.97,-0.85,0,*78
1491296850.51,63105,15.0,74060.3,3.41,-1.17,-1.05,0,*79
1491296851.78,63106,15.0,74058.3,3.41,-1.09,-1.05,0,*75
1491296853.02,63107,15.06,74062.5,3.41,-0.85,-0.73,0,*71
1491296854.21,63108,15.0,74060.8,3.39,-1.33,-1.17,0,*7E
1491296855.45,63109,15.0,74062.3,3.41,-1.43,-1.25,0,*76
1491296856.67,63110,15.0,74060.0,3.39,-1.59,-1.43,0,*7A
1491296857.91,63111,15.0,74062.0,3.41,-1.55,-1.35,0,*79
1491296859.16,63112,15.0,74060.8,3.37,-1.47,-1.21,0,*7D
1491296860.42,63113,15.06,74066.3,3.37,-1.35,-1.09,0,*73
1491296861.66,63114,15.0,74060.3,3.37,-1.63,-1.47,0,*7D
1491296862.88,63115,15.0,74060.5,3.37,-1.71,-1.51,0,*78
1491296864.12,63116,15.0,74058.5,3.37,-1.51,-1.35,0,*7B
1491296865.38,63117,15.0,74062.5,3.37,-1.09,-1.09,0,*78
1491296866.64,63118,15.06,74060.8,3.37,-0.89,-1.01,0,*46
1491296867.91,63119,15.0,74062.0,3.37,-1.01,-1.09,0,*7E
1491296869.17,63120,15.06,74060.5,3.37,-1.09,-1.01,0,*74
1491296870.43,63121,15.0,74060.3,3.37,-1.01,-0.89,0,*4C
1491296871.69,63122,15.0,74062.5,3.37,-1.13,-0.97,0,*43
1491296872.92,63123,15.0,74060.3,3.37,-1.63,-1.13,0,*78
1491296874.16,63124,15.0,74062.3,3.37,-1.63,-1.01,0,*7C
1491296875.41,63125,15.0,74060.5,3.37,-1.83,-1.21,0,*71
1491296876.65,63126,15.0,74058.3,3.37,-1.87,-1.21,0,*76
1491296877.89,63127,15.0,74062.0,3.37,-1.71,-1.13,0,*7F
1491296879.13,63128,15.0,74060.0,3.37,-1.75,-1.13,0,*74
1491296880.4,63129,15.0,74058.3,3.37,-1.87,-1.35,0,*7C
1491296881.65,63130,15.0,74060.0,3.37,-1.99,-1.71,0,*7B
1491296882.89,63131,15.0,74062.0,3.37,-2.07,-1.63,0,*7D
1491296884.14,63132,15.0,74060.3,3.39,-2.11,-2.03,0,*72
1491296885.36,63133,15.0,74060.0,3.39,-2.03,-1.79,0,*7E
1491296886.57,63134,15.0,74056.8,3.39,-2.19,-2.07,0,*78
1491296887.82,63135,15.0,74058.5,3.39,-2.03,-2.03,0,*76
1491296889.04,63136,15.0,74062.5,3.39,-1.71,-1.91,0,*7B
1491296890.25,63137,15.0,74056.5,3.39,-1.79,-1.91,0,*72
1491296891.47,63138,15.0,74058.0,3.39,-1.79,-1.83,0,*7E
1491296892.66,63139,15.0,74060.8,3.39,-1.67,-1.67,0,*7A
1491296893.87,63140,15.0,74060.3,3.39,-1.67,-1.43,0,*72
1491296895.09,63141,15.0,74056.8,3.39,-1.67,-1.43,0,*73
1491296896.3,63142,15.0,74060.0,3.39,-1.95,-1.71,0,*7C
1491296897.55,63143,15.0,74060.3,3.37,-2.23,-2.07,0,*7F
1491296898.8,63144,15.0,74056.0,3.37,-1.83,-1.71,0,*73
1491296900.01,63145,15.0,74062.0,3.37,-1.63,-1.59,0,*76
1491296901.25,63146,15.0,74062.8,3.37,-1.51,-1.39,0,*72
1491296902.46,63147,15.0,74060.3,3.39,-1.59,-1.43,0,*78
1491296903.67,63148,15.0,74060.3,3.39,-1.59,-1.35,0,*76
1491296904.89,63149,15.0,74060.3,3.39,-1.71,-1.47,0,*78
1491296906.11,63150,15.0,74062.8,3.39,-1.71,-1.43,0,*74
1491296907.3,63151,15.0,74062.0,3.39,-1.71,-1.55,0,*72
1491296908.52,63152,15.0,74062.8,3.39,-1.55,-1.35,0,*71
1491296909.74,63153,15.0,74060.5,3.39,-1.83,-1.55,0,*7D
1491296910.98,63154,15.0,74062.8,3.41,-2.19,-1.83,0,*7E
1491296912.17,63155,15.0,74056.8,3.39,-2.23,-1.71,0,*74
1491296913.36,63156,15.0,74056.3,3.39,-2.35,-1.71,0,*70
1491296914.57,63157,15.0,74060.5,3.39,-2.35,-1.95,0,*7B
1491296915.81,63158,15.0,74058.3,3.39,-2.67,-2.11,0,*7C
1491296917.02,63159,15.0,74060.5,3.39,-2.43,-2.03,0,*78
1491296918.21,63160,15.0,74062.0,3.39,-3.11,-2.87,0,*78
1491296919.43,63161,15.0,74060.5,3.39,-2.87,-2.59,0,*74
1491296920.64,63162,15.0,74064.5,3.39,-2.83,-2.67,0,*7E
1491296921.85,63163,15.0,74062.3,3.39,-2.55,-2.43,0,*72
1491296923.1,63164,15.0,74062.8,3.39,-2.71,-2.55,0,*74
1491296924.34,63165,15.0,74062.3,3.39,-2.71,-2.67,0,*74
1491296925.59,63166,15.0,74064.3,3.41,-2.47,-2.43,0,*7B